Starlink 32188

operational
NORAD ID: 60365 Int'l Des: 2024-138 Owner: SPXS Country: US Constellation: starlink
LEOCIRCULAR

关于 Starlink 32188

正在加载描述...

实时位置

正在加载3D地球...

即将过境

高度历史

Altitude vs Time

uPlot chart will show altitude changes over time

两行轨道根数

1 60365U 24138L 25355.15940286 .00000765 00000-0 37976-4 0 9997
2 60365 53.1624 314.4137 0001258 87.4340 272.6804 15.30193413 78608
Epoch: Dec 21, 2025 • Age: 6 hours

当前状态

高度 486.7 km
速度 7.62 km/s
星下点 -34.32°S, 43.92°E
发射日期 Aug 4, 2024
运行时间 1.3 years
类型 internet

技术详情

分类 Payload
质量 730.00 kg
干质量 700.00 kg
总质量 730.00 kg
长度 0.30 m
直径 4.10 m
跨度 29.00 m
形状 Box + pan
制造商 SPXS
平台类型 Starlink V2M
阶段状态 In Orbit
所有者/国家 SPXS/US

大型星座

Loading constellations...